Temp
7 7 7 7 7 7 7 7 7 7 7 7 7 7 7 7 8 8 8 8 8 8 8 8 8 8 8 8 8 8 8 10 10 8 10 17 20 19 18 19 19 18 18 18 18 18 17 17 18 18 19 19 19 20 20 20 20 21 21 21 21 22 22 21 22 22 22 23 24 24 23 23 24 25 25 24 24 23 22 22 21 22 22 22 22 21 20 19
7 7 7 7 7 7 7 7 7 7 7 7 7 7 7 7 7 8 8 7 8 8 8 8 8 8 8 9 9 9 10 9 9 9 14 19 19 19 18 18 18 18 18 18 19 19 18 18 17 18 20 19 19 19 20 20 20 21 20 20 22 22 21 21 22 22 22 23 23 23 22 22 23 24 24 25 24 23 23 22 21 21 21 21 21 20 20 19
7 7 7 7 7 7 7 7 7 7 7 7 7 7 7 7 8 7 8 8 8 8 8 8 8 8 9 11 10 11 10 9 13 16 18 19 19 19 18 17 18 18 19 19 19 19 19 18 17 19 19 19 19 19 20 20 20 20 20 22 22 21 21 20 21 22 22 22 22 23 22 22 24 23 24 25 24 24 23 22 22 21 20 20 20 20 20 20
7 7 7 7 7 7 7 7 7 7 7 7 7 7 7 8 8 7 8 8 8 8 8 8 8 9 12 13 12 12 10 13 19 20 19 19 20 20 19 18 18 18 19 19 19 19 19 18 18 19 19 19 18 18 20 20 20 20 20 22 21 20 21 21 21 22 22 22 22 23 22 23 24 23 24 24 24 25 24 23 22 21 20 20 20 20 20 20
6 7 7 7 7 7 7 7 7 7 7 7 7 7 7 7 7 8 8 8 8 8 8 8 9 11 13 14 14 12 12 18 21 19 20 20 20 20 19 19 18 18 19 19 19 18 18 18 18 19 19 19 18 19 20 20 20 20 21 21 20 20 22 22 22 23 22 22 22 22 23 24 24 23 24 24 25 26 24 23 23 22 21 20 20 20 20 20
6 6 7 7 7 7 7 6 7 7 7 7 7 7 7 7 7 8 8 8 9 9 8 8 9 11 14 14 14 13 15 20 20 19 20 20 20 20 19 20 19 18 19 19 18 18 18 18 19 19 19 19 19 20 20 19 20 21 22 21 20 20 21 22 22 23 22 21 22 23 23 23 23 24 24 23 25 25 23 23 23 23 22 22 21 21 20 19
6 6 6 7 7 7 7 6 7 7 7 7 7 7 7 7 7 8 8 8 9 9 8 8 9 11 13 14 14 14 16 19 19 20 20 19 20 19 19 19 18 18 18 18 18 18 18 18 19 19 19 20 19 20 20 19 20 21 21 21 21 21 21 22 22 23 22 21 22 22 22 22 24 24 23 23 24 23 22 23 23 23 23 22 21 20 19 19
7 7 6 7 7 7 7 6 7 7 7 7 7 7 7 7 8 8 8 9 9 9 8 9 9 10 13 14 14 16 17 18 19 19 19 19 19 19 19 18 18 18 18 19 19 18 18 19 19 19 20 20 19 20 20 20 20 20 21 21 21 21 22 22 21 22 22 21 21 21 22 23 24 23 23 24 23 22 22 23 23 23 22 22 21 20 19 19
6 7 6 6 7 7 6 6 7 7 7 7 7 7 7 9 10 10 9 9 9 8 8 8 8 10 12 12 14 17 19 19 19 19 19 19 19 19 19 18 17 18 18 18 18 18 19 19 19 19 20 20 19 20 20 20 21 21 21 21 21 22 22 22 21 22 22 21 21 22 23 24 23 22 24 23 22 22 22 22 22 22 22 21 20 20 20 19
6 6 6 6 6 6 6 6 7 7 7 7 7 7 9 10 11 12 10 9 9 8 8 8 8 11 12 11 15 18 19 19 19 19 19 19 19 18 18 18 18 18 18 17 18 19 19 19 19 19 20 19 19 20 20 21 21 21 21 21 21 21 21 21 22 22 22 21 22 23 24 24 22 23 25 22 20 22 22 22 22 22 22 21 20 20 20 19
6 6 6 6 6 6 6 6 6 7 7 7 7 8 10 12 13 12 11 10 10 8 8 8 8 10 10 11 15 18 19 19 19 19 19 19 19 18 18 18 18 18 18 17 18 19 19 19 19 19 20 20 20 19 20 21 21 21 21 21 21 21 21 20 21 22 21 23 23 22 24 23 22 24 25 22 21 22 22 22 21 21 22 21 21 20 20 19
6 6 6 6 6 6 6 6 6 6 7 7 7 9 11 13 13 13 12 12 11 9 8 8 8 9 9 11 15 17 19 19 18 19 19 19 19 18 18 18 19 19 19 18 18 18 19 19 19 20 20 20 20 20 20 20 20 21 20 21 22 22 22 21 21 21 21 23 23 23 23 23 23 24 23 20 21 22 22 22 21 21 21 21 21 20 19 20
6 6 6 6 6 6 6 6 6 6 6 7 8 9 11 13 13 13 13 12 11 9 8 8 8 8 10 14 17 18 19 18 18 18 18 18 18 18 18 18 18 19 19 19 19 18 19 19 19 20 20 20 21 20 20 20 20 21 20 21 21 22 23 21 20 20 21 22 23 23 23 23 25 25 22 20 21 22 22 22 21 21 21 21 21 19 19 19
6 6 6 6 6 6 6 6 6 6 6 8 9 10 12 12 13 13 13 12 11 9 8 7 8 8 10 15 18 18 18 17 17 17 17 18 17 18 18 18 18 18 18 18 19 19 19 18 19 20 19 20 21 20 20 20 20 21 21 21 20 21 22 22 20 20 22 22 22 24 22 23 26 25 21 20 21 22 22 22 21 21 21 21 21 19 19 19
6 6 6 6 6 6 6 6 6 6 7 9 10 10 11 12 12 12 12 11 10 9 8 8 8 8 11 15 17 17 17 17 17 18 18 17 17 18 18 18 17 17 18 18 18 19 18 18 19 20 20 19 20 21 20 20 20 20 21 20 19 20 21 22 21 20 22 22 22 23 22 23 25 24 22 20 21 23 22 23 22 20 21 21 21 20 19 19
6 6 6 6 6 6 6 6 6 6 7 10 10 10 10 11 11 12 12 10 9 9 8 9 7 8 13 17 17 17 17 17 18 19 19 18 17 18 18 17 16 16 17 17 18 18 18 19 19 19 20 20 20 20 20 20 20 19 20 20 20 20 20 22 21 20 21 22 22 23 23 24 24 23 21 20 21 22 22 23 22 21 21 21 21 20 19 19
6 6 6 6 5 5 5 6 5 6 8 10 11 10 10 10 9 10 10 9 9 8 8 9 7 8 15 18 17 18 18 18 19 19 19 19 18 18 18 17 16 16 17 18 18 18 18 19 19 19 19 19 19 20 20 20 20 19 19 20 19 19 20 21 22 21 21 22 22 22 22 23 24 23 21 20 21 21 22 23 23 22 21 21 22 21 20 19
6 6 6 6 6 5 5 5 6 7 8 10 10 10 10 9 8 9 8 8 8 8 9 9 8 13 17 17 17 18 17 18 19 19 18 18 17 18 19 18 17 17 18 18 18 18 19 18 18 19 19 18 19 20 20 20 20 20 20 20 19 19 19 19 21 21 21 22 22 22 22 23 24 24 22 21 21 21 22 22 23 22 21 21 22 21 20 20
5 5 6 5 6 5 5 5 6 7 8 10 10 9 9 9 8 8 7 7 10 13 14 12 12 17 19 17 17 17 18 18 19 19 18 17 17 18 19 18 18 18 18 19 18 18 18 18 18 19 19 19 19 20 20 20 20 20 20 20 20 19 20 19 20 21 21 22 22 22 23 23 24 24 23 22 21 21 21 22 22 22 22 22 21 21 21 20
5 5 5 5 5 5 6 6 6 7 7 9 9 9 10 11 11 12 9 8 11 15 16 15 14 17 17 16 17 18 18 19 19 19 18 17 17 18 19 19 18 19 19 19 18 17 18 18 18 19 19 19 19 19 20 19 19 20 19 19 20 20 20 19 20 21 21 21 22 22 22 22 23 24 24 22 21 20 21 21 21 22 22 22 22 21 20 20
5 5 5 5 5 5 6 5 6 8 8 8 8 9 12 13 14 14 12 11 12 13 14 14 14 16 17 16 16 17 18 18 19 19 18 17 18 19 19 19 19 19 18 18 18 18 18 18 19 19 19 19 19 19 18 18 18 19 19 20 20 20 20 19 20 20 20 20 21 21 21 22 23 24 24 22 21 21 21 21 21 22 22 22 22 21 20 20
5 5 5 5 5 5 5 5 7 9 9 9 8 9 12 12 12 12 12 13 13 12 12 13 13 14 15 15 15 16 16 17 18 19 18 18 18 19 19 18 19 18 17 17 18 18 18 18 19 18 17 18 18 17 18 18 18 19 19 19 19 20 20 20 19 19 19 20 21 21 20 22 23 23 23 21 21 22 22 22 22 22 22 22 22 21 20 19
5 5 5 5 5 5 5 6 8 9 9 8 7 8 11 12 12 12 11 12 13 13 12 12 12 13 13 14 15 15 15 16 17 19 18 18 18 18 19 18 18 18 17 18 19 18 18 18 19 18 17 18 17 16 17 18 18 18 19 19 19 19 19 20 20 19 19 20 20 21 20 22 22 22 22 21 19 20 20 21 21 22 22 22 22 21 20 19
5 5 5 5 5 5 6 7 8 8 9 8 7 9 12 12 11 11 12 12 13 13 13 13 13 13 14 15 15 15 16 16 17 19 19 19 18 18 19 19 18 18 18 18 18 18 19 18 17 16 17 19 18 16 17 18 19 18 18 19 19 19 19 20 20 19 20 19 19 20 20 21 21 21 23 21 18 18 18 19 20 21 22 22 22 22 20 20
5 5 5 5 5 6 8 8 7 8 8 8 9 11 11 11 11 11 12 13 14 15 14 14 14 14 16 15 15 16 16 16 17 18 18 19 19 18 19 19 18 19 18 17 17 18 19 18 16 17 17 18 18 17 17 19 19 18 18 19 19 20 20 19 19 19 20 20 19 19 20 21 21 21 23 21 19 19 18 18 20 21 21 22 22 21 20 20
5 5 5 5 4 6 8 8 7 7 8 9 10 11 11 11 11 11 12 14 15 17 16 15 15 17 17 16 15 16 16 17 17 18 18 20 20 19 19 18 18 19 18 17 17 18 18 17 17 18 17 17 18 18 18 18 19 19 19 19 19 19 19 18 18 19 20 20 19 18 20 21 21 22 22 19 19 20 19 18 19 20 20 21 22 21 20 20
5 4 5 5 4 5 7 8 6 7 10 11 11 11 11 12 11 11 13 14 16 17 17 16 16 18 17 16 16 16 17 18 17 18 19 20 20 20 20 18 18 18 17 17 18 18 18 17 17 18 18 17 18 18 18 18 19 19 19 19 19 19 18 18 19 20 20 20 19 19 20 20 20 22 20 18 19 21 20 19 18 19 20 20 21 21 20 20
4 5 4 5 5 4 5 6 5 6 10 12 10 11 11 11 11 12 14 15 17 18 18 17 17 18 17 16 16 17 17 18 18 18 19 20 20 20 20 19 19 19 18 18 19 18 18 17 17 18 18 17 18 19 18 18 20 20 19 18 18 19 18 18 19 19 19 19 20 20 20 20 20 21 20 18 20 22 20 19 18 18 19 20 21 21 21 21
4 4 4 4 5 5 5 5 5 7 11 11 11 11 11 11 12 13 14 15 17 18 18 18 18 18 17 16 16 16 16 18 18 18 18 19 20 20 19 19 19 18 18 19 20 19 18 18 18 18 18 19 19 19 18 18 20 20 18 17 18 18 18 18 19 19 18 18 20 20 20 20 20 21 21 20 21 21 19 18 18 19 19 19 20 21 21 21
4 4 4 4 4 5 5 5 7 10 11 10 11 11 11 12 13 14 14 15 16 17 17 18 18 17 17 16 16 16 16 17 18 18 18 19 19 19 19 18 19 18 18 19 19 18 18 17 18 18 19 19 19 18 17 19 19 18 18 19 19 18 18 18 18 19 19 19 20 20 20 20 20 21 22 20 19 18 17 18 18 19 19 19 20 20 20 20
4 4 4 4 5 5 5 6 9 11 10 10 11 11 12 13 13 14 14 15 16 16 17 17 17 16 16 15 16 17 16 17 18 18 18 18 19 19 19 19 19 18 18 18 18 18 18 18 18 19 19 19 19 18 17 18 18 19 19 20 19 19 19 19 18 18 19 20 20 18 18 20 20 21 21 19 18 18 17 18 18 18 19 19 20 19 19 18
4 4 4 4 5 4 6 9 10 10 10 10 10 12 14 14 13 13 15 15 16 16 16 15 16 16 15 14 16 17 17 17 18 18 18 18 19 19 19 19 19 18 17 18 18 18 18 19 19 19 19 19 20 20 18 17 18 19 19 19 19 19 19 19 19 19 19 20 18 16 18 19 20 21 19 17 18 18 18 18 18 18 19 19 19 18 17 17
5 6 6 6 6 6 8 10 9 9 10 9 10 13 14 14 13 13 14 15 15 15 15 15 15 15 14 16 17 18 18 18 18 18 18 18 18 18 18 18 18 19 18 17 17 18 18 19 18 18 19 20 20 20 20 19 18 19 19 19 20 19 18 18 19 18 19 20 17 16 18 20 21 20 18 17 18 18 18 18 18 17 17 17 17 17 16 16
7 8 8 9 9 9 10 10 9 9 9 9 12 14 13 13 13 13 13 14 14 14 14 14 14 15 15 17 18 17 17 18 17 18 18 18 18 18 18 18 18 19 18 17 17 17 18 18 19 19 19 20 20 21 21 20 18 19 19 20 20 20 19 19 20 20 20 20 18 17 19 20 21 19 17 18 18 17 17 17 17 16 16 16 16 16 16 16
9 9 10 11 11 12 11 10 9 9 9 11 13 13 13 14 13 12 13 13 13 13 14 14 14 16 17 16 17 17 17 17 17 18 18 18 18 18 18 18 18 18 18 18 17 17 17 18 20 19 18 19 20 21 21 20 19 18 18 20 20 20 21 19 18 18 19 20 19 18 19 19 19 18 17 18 18 17 17 17 16 16 15 16 16 16 15 15
10 10 11 11 12 12 12 11 9 8 9 12 14 13 13 13 13 12 13 13 13 13 13 15 15 16 16 16 16 17 17 17 17 18 18 17 18 17 18 18 18 18 19 18 17 17 17 19 19 19 18 19 20 20 20 21 20 18 18 20 19 20 21 19 17 16 16 19 19 17 18 19 19 18 18 18 18 17 16 16 16 16 16 16 16 16 15 15
9 10 10 11 12 12 12 11 10 9 10 13 14 13 12 12 12 13 13 13 13 13 13 15 15 15 15 15 15 16 17 17 17 18 18 17 18 18 18 18 18 18 20 19 18 17 18 19 19 19 20 20 18 19 20 20 20 19 19 21 19 19 20 20 19 18 17 19 18 16 17 18 19 19 18 18 17 16 16 16 16 16 17 16 16 16 16 15
6 7 10 11 12 12 12 12 10 10 12 14 13 12 11 12 12 12 13 13 13 13 13 14 14 14 14 14 15 15 16 17 17 17 17 17 17 18 18 18 18 18 18 19 19 18 17 19 20 18 19 19 17 18 20 19 19 20 20 20 20 20 20 19 19 19 19 19 18 17 16 17 19 19 18 17 17 16 16 16 17 17 17 17 17 16 16 15
5 9 12 11 11 12 12 11 10 12 14 13 13 12 11 11 12 12 13 13 13 13 13 13 14 14 14 14 15 15 15 16 17 16 17 17 17 17 17 17 18 17 17 18 19 18 17 18 20 18 17 18 19 20 20 20 19 19 19 20 19 20 20 19 19 20 20 19 18 18 18 19 19 18 17 17 16 16 16 16 17 16 16 17 17 16 16 15
6 11 13 11 11 12 11 10 11 13 13 12 11 12 11 11 13 13 13 13 13 13 13 13 13 13 14 14 15 15 15 16 16 16 16 17 17 17 16 16 17 17 16 17 18 17 17 17 19 19 18 18 20 19 19 20 20 20 20 20 20 19 19 20 19 19 20 20 18 18 20 20 17 16 16 16 16 16 16 16 16 16 16 16 16 16 16 15
8 12 12 10 11 11 10 12 12 11 12 11 11 11 11 12 13 13 13 13 13 14 13 13 14 13 14 14 14 15 15 16 16 15 16 16 16 17 16 15 16 17 17 17 18 17 18 17 17 19 19 20 20 18 17 18 18 19 20 20 20 19 19 20 19 17 18 19 18 18 21 20 15 14 16 15 16 16 16 16 16 15 15 15 15 16 15 15
10 13 11 10 11 11 11 12 10 9 11 11 11 11 11 12 12 12 13 13 13 13 13 13 14 13 13 14 14 14 15 16 16 15 15 15 16 16 16 14 15 16 17 17 17 16 17 17 17 18 19 19 18 16 16 16 16 17 17 18 18 19 20 21 20 19 18 17 17 18 20 19 14 13 15 15 15 16 15 15 15 15 15 15 15 15 15 15
12 12 10 10 11 11 12 12 10 10 11 11 10 11 11 11 12 12 13 13 13 13 13 13 14 14 14 13 14 14 15 15 16 15 15 15 15 15 15 14 14 15 17 17 17 16 16 17 17 18 18 18 18 17 15 15 16 17 17 16 16 17 18 19 19 19 18 18 18 19 20 18 14 13 15 15 15 15 15 15 15 15 15 15 14 14 13 13
11 10 10 11 11 11 12 12 11 11 11 11 11 12 11 11 11 12 12 13 13 12 13 13 13 14 13 13 13 14 14 15 15 15 14 15 16 15 15 14 14 16 17 17 17 16 16 17 17 17 17 17 18 18 18 18 17 16 15 14 14 15 15 17 18 18 19 18 18 20 21 18 14 14 15 15 14 14 14 14 14 14 14 13 12 12 11 11
11 11 11 11 11 11 11 11 11 11 11 11 11 11 11 11 12 12 12 12 12 12 13 13 13 13 13 12 13 13 14 14 14 15 14 14 15 15 15 14 15 15 16 16 16 16 15 15 15 17 17 17 17 17 17 17 16 15 14 13 13 13 14 16 18 19 20 17 16 20 20 16 14 14 15 14 14 13 12 12 12 11 11 11 10 10 10 10
12 12 11 11 11 11 10 9 10 12 11 10 11 11 11 12 12 11 12 12 12 12 12 12 12 13 12 12 13 13 13 13 13 14 13 13 14 14 14 14 14 15 16 16 16 15 14 13 13 16 16 16 17 16 14 14 15 15 14 12 12 11 11 14 18 20 19 17 17 19 18 15 14 15 15 14 14 12 11 11 10 10 10 10 9 9 9 9
13 12 11 11 11 11 10 9 10 11 10 10 11 10 10 11 12 12 12 12 12 12 12 12 12 12 12 11 12 12 12 13 13 13 12 12 13 13 13 13 13 14 15 15 15 15 15 13 12 14 14 13 14 13 12 12 13 12 12 12 12 12 12 15 17 17 17 18 19 17 14 15 15 15 15 14 12 11 10 9 9 9 9 9 9 9 9 8
11 11 10 10 11 11 11 11 10 10 10 10 10 10 11 11 11 12 12 12 12 12 12 12 11 11 11 10 11 12 12 13 13 13 12 12 12 13 14 14 13 13 14 15 15 15 16 14 12 12 12 11 12 12 12 12 11 11 11 11 12 12 13 14 13 12 14 18 18 15 14 15 14 13 13 12 10 10 9 9 9 9 9 9 9 9 8 8
10 11 9 9 11 11 10 9 10 11 10 10 10 10 11 11 11 11 11 12 12 12 12 12 12 10 10 10 11 12 12 12 12 12 12 12 11 12 14 15 14 13 13 14 14 14 15 14 12 12 12 12 12 12 12 12 11 11 11 11 11 12 12 13 12 12 13 15 14 14 13 13 12 11 10 9 9 9 9 9 9 8 8 9 9 8 8 8
11 12 11 10 10 9 9 9 10 11 11 9 10 11 10 11 11 11 11 11 12 12 11 12 11 10 10 10 11 11 11 11 12 11 12 12 11 12 13 13 13 12 12 13 13 14 15 14 12 13 13 12 12 12 12 12 11 11 10 10 11 12 12 12 12 12 13 13 13 13 13 11 10 9 9 8 9 9 8 8 8 8 8 8 8 7 7 7
9 9 10 12 11 9 9 9 9 11 11 10 10 11 10 11 10 9 10 11 11 12 12 11 11 10 10 11 11 11 11 11 11 11 11 11 12 12 12 11 11 12 12 12 12 13 14 13 12 13 15 13 12 12 12 12 12 12 10 9 9 10 11 11 11 11 11 12 13 13 13 11 9 8 8 8 8 8 8 7 7 7 7 7 7 7 7 7
8 8 9 12 12 8 8 9 8 10 11 9 9 9 10 11 10 9 11 11 11 12 12 11 11 11 11 11 11 12 11 10 10 11 11 11 11 11 12 11 11 12 12 12 11 11 13 13 13 14 15 13 11 12 12 12 13 13 10 8 9 9 10 10 11 10 10 11 12 13 12 10 9 8 8 7 7 7 7 6 6 6 6 6 6 6 6 6
Height
805 804 804 803 802 801 799 798 797 796 795 794 794 794 793 792 792 791 790 789 789 788 787 786 785 783 782 780 779 778 776 774 773 773 772 765 763 763 763 764 764 765 767 768 769 770 773 776 776 778 777 779 781 781 782 781 781 783 787 794 792 787 788 787 784 783 782 780 777 775 776 777 773 767 763 762 763 766 767 768 767 765 764 764 765 767 769 772
804 804 804 803 802 801 799 798 796 795 794 794 793 793 792 792 791 790 789 789 788 787 786 785 784 782 780 779 778 777 775 773 772 770 766 763 763 762 762 763 764 765 766 767 768 769 772 775 776 777 777 780 782 782 782 782 782 785 793 794 786 784 786 783 781 781 781 779 776 775 776 776 774 770 766 765 768 767 769 771 770 771 770 768 768 769 770 773
803 803 803 803 802 801 799 798 796 795 794 793 793 792 791 791 790 789 788 788 787 786 784 783 782 780 779 779 777 776 774 772 769 765 763 762 762 761 761 763 764 765 766 767 768 769 770 772 774 776 778 781 783 783 783 783 783 786 791 789 783 784 784 782 782 780 779 778 777 776 775 775 771 769 767 767 770 768 769 772 772 775 774 772 771 771 773 775
803 802 802 802 802 801 799 798 796 794 793 792 791 791 790 790 789 788 787 786 785 784 783 782 781 779 779 778 777 776 774 772 766 762 762 762 761 760 760 762 763 765 767 768 769 770 770 772 774 775 778 782 785 784 784 783 783 786 786 783 783 785 783 780 780 778 777 777 778 776 775 772 767 768 768 768 770 767 767 768 768 771 772 772 771 771 773 775
802 802 802 802 801 800 799 797 795 793 792 791 790 789 789 788 787 786 786 785 783 783 781 781 780 779 778 777 777 775 774 772 765 761 762 761 760 760 760 761 763 765 767 768 769 770 771 773 774 776 778 783 786 784 785 782 782 785 781 780 783 784 782 779 777 776 775 776 777 776 774 770 767 768 767 768 770 765 763 763 762 764 766 767 768 770 773 775
802 802 802 801 801 800 798 797 795 793 791 790 789 789 788 787 786 785 785 784 783 782 781 780 779 778 777 777 776 774 774 771 763 761 761 760 760 759 760 761 763 765 766 768 769 771 772 774 775 777 779 782 785 784 784 782 783 784 779 779 781 782 782 778 775 774 774 777 777 775 773 770 769 767 765 766 766 761 759 758 757 759 761 764 766 769 772 775
802 801 801 801 800 799 798 797 795 793 791 790 789 788 787 786 786 785 784 783 782 781 781 780 779 778 777 776 775 775 775 769 761 761 760 759 760 760 760 761 763 765 766 767 769 771 772 774 776 777 779 782 785 783 782 782 782 783 780 780 779 779 780 776 774 773 774 776 774 773 772 771 770 768 765 764 761 759 757 755 755 757 760 764 767 769 772 774
801 801 800 800 799 798 797 796 794 793 790 789 788 787 786 785 785 784 783 783 782 781 780 779 778 777 776 776 775 774 773 767 761 761 760 759 759 760 761 762 764 765 766 767 768 770 772 774 775 777 778 780 781 781 781 782 783 782 781 780 778 777 776 774 774 773 773 773 772 773 771 769 768 768 765 762 760 758 756 755 756 759 762 766 769 771 773 775
801 800 800 799 798 797 796 794 793 792 790 788 787 786 785 784 783 783 782 781 781 780 779 778 778 777 776 776 776 773 767 762 761 760 759 758 759 760 761 763 764 766 767 768 768 769 770 773 773 774 776 778 779 779 780 782 782 779 779 779 777 775 774 774 774 772 771 772 772 772 769 766 766 767 764 761 760 758 756 758 759 761 764 767 770 772 772 774
801 799 799 798 797 796 795 793 792 790 789 787 786 785 783 783 782 781 781 780 779 779 778 778 777 776 777 775 776 774 764 761 762 760 759 759 759 760 762 763 764 765 767 768 769 769 769 771 772 772 773 776 778 778 779 780 778 776 777 777 776 776 775 775 773 770 771 770 770 770 767 766 767 767 764 761 760 758 758 761 761 762 765 767 770 772 772 773
800 799 798 797 796 795 793 792 791 789 788 786 784 783 782 781 780 779 779 778 778 778 777 777 776 776 776 775 777 772 762 760 762 761 761 760 760 762 763 764 764 765 767 768 769 769 769 770 771 772 773 774 776 779 778 776 775 774 776 776 776 776 775 775 773 771 771 768 766 768 767 767 769 767 763 761 760 758 759 762 763 764 765 767 769 772 773 773
799 798 797 796 795 794 792 791 789 788 786 784 783 781 780 779 779 778 777 776 776 776 776 776 776 775 776 776 773 766 759 761 761 761 762 761 762 763 763 765 765 765 766 768 768 768 770 770 770 772 773 773 775 780 777 774 774 774 776 777 776 774 773 773 772 771 772 766 762 766 769 768 768 765 762 762 760 759 760 761 764 766 766 767 769 772 773 773
799 797 796 795 794 792 791 789 788 787 785 783 782 780 779 777 777 776 775 774 774 774 775 775 775 775 776 772 764 759 759 760 760 761 761 761 762 763 764 765 765 766 767 767 768 768 769 770 770 771 772 773 775 776 773 773 775 774 776 778 778 777 775 773 773 773 771 767 761 766 775 771 763 761 762 763 760 760 762 761 764 765 766 767 768 771 773 773
797 796 795 794 792 791 790 788 787 786 784 782 781 779 777 776 775 773 773 772 772 773 773 774 775 775 776 768 757 757 759 759 759 759 759 760 761 762 763 764 765 766 767 768 768 768 769 769 771 771 771 772 772 772 774 776 777 777 777 779 785 785 778 771 773 774 769 766 762 765 777 770 760 760 762 763 761 761 763 762 764 765 766 767 767 771 773 773
796 795 794 792 791 790 788 787 786 784 783 781 779 778 776 774 773 772 771 770 771 771 772 774 774 774 775 765 756 756 756 757 757 756 757 758 760 761 761 763 765 766 767 768 768 768 768 769 770 772 772 771 771 774 778 778 779 782 781 783 788 788 781 773 772 774 770 766 763 765 775 769 760 761 762 763 762 761 763 762 763 766 765 766 766 769 771 772
795 793 792 791 790 788 787 786 785 783 782 780 778 776 774 773 772 771 770 770 771 771 773 774 774 775 772 761 755 755 755 755 755 754 755 756 757 759 760 762 764 766 767 768 768 769 768 769 771 772 772 772 774 777 781 782 783 785 785 785 787 787 785 778 772 774 771 767 766 767 772 769 762 763 763 763 762 761 763 762 762 764 765 764 765 767 770 771
793 792 791 790 788 787 786 785 783 782 780 779 777 775 774 773 772 771 771 771 771 772 773 773 774 775 766 756 756 755 754 754 754 754 754 754 756 757 759 762 764 766 767 768 769 769 769 770 772 773 774 776 777 778 784 788 786 787 787 786 787 788 788 783 774 772 770 769 770 770 772 768 761 761 763 763 762 763 763 762 761 762 764 764 764 765 768 770
792 791 790 789 787 786 784 783 782 781 779 778 776 775 774 773 773 773 772 772 773 773 774 774 775 772 761 755 756 754 753 754 753 753 753 754 756 757 758 760 763 765 767 769 769 770 771 772 773 775 778 780 780 780 785 788 784 785 787 785 787 789 789 788 780 773 771 770 771 772 773 767 759 757 762 762 761 763 762 760 760 760 762 763 763 763 765 767
792 790 789 788 786 785 784 782 781 780 778 777 776 775 774 774 774 774 773 774 773 769 767 768 769 763 755 754 755 753 753 753 752 752 752 753 755 757 758 759 762 765 767 770 771 771 771 774 777 778 778 780 779 778 779 780 779 781 784 784 786 786 785 787 783 774 772 773 771 770 769 766 759 755 757 759 760 762 761 760 760 759 760 761 762 762 762 764
791 789 788 787 785 784 783 782 780 779 778 776 776 776 774 774 772 772 773 773 768 761 758 761 761 756 753 754 754 753 753 752 752 751 752 752 753 756 758 759 762 764 767 770 772 773 772 776 778 776 775 777 777 776 776 779 780 781 784 784 784 784 782 783 782 773 772 776 771 766 768 767 762 755 752 756 760 762 762 761 760 758 757 757 759 760 761 763
790 788 787 786 785 784 782 781 779 778 777 776 776 776 774 773 772 771 771 766 760 759 758 757 757 754 751 753 754 754 755 754 752 751 752 752 752 756 758 760 764 767 769 771 772 773 774 778 776 772 774 774 775 777 778 781 782 782 783 783 783 783 781 781 780 774 773 778 771 768 772 767 760 754 749 754 760 760 758 758 758 755 754 753 754 757 759 761
789 787 786 785 784 783 781 780 778 776 776 776 776 776 774 773 773 773 772 765 758 757 757 756 757 755 751 753 754 755 758 758 753 750 751 752 752 755 759 762 765 768 771 772 773 775 778 777 772 771 776 775 777 781 780 781 783 784 784 785 784 780 780 779 778 777 776 776 771 770 773 764 756 752 749 753 756 753 751 751 751 750 750 750 750 753 757 759
788 787 786 784 783 782 779 778 777 775 776 775 776 776 774 774 773 772 773 771 762 756 755 757 757 754 752 751 751 753 757 757 754 748 747 751 752 754 757 762 765 768 772 771 771 777 779 773 768 771 776 775 779 783 781 781 783 784 783 784 782 781 784 781 777 777 776 775 772 770 772 764 756 752 749 753 756 753 752 750 747 746 746 745 746 748 752 755
787 786 785 783 782 780 778 777 775 775 775 775 775 774 774 774 773 773 772 770 764 756 753 753 753 752 750 748 747 750 752 752 750 745 743 747 751 754 754 758 765 768 769 767 769 773 772 770 769 773 775 772 777 783 782 781 781 783 783 781 780 781 783 779 776 777 774 773 774 773 773 764 757 756 749 750 757 755 754 751 747 745 743 741 743 745 747 749
786 785 783 782 781 778 776 775 775 775 775 774 773 773 774 773 772 773 771 769 764 755 751 751 750 749 745 746 747 747 749 748 744 741 741 743 746 752 754 756 761 766 767 768 772 772 768 769 771 774 776 773 775 780 780 778 778 781 781 777 776 775 776 777 779 780 776 775 775 776 775 764 756 756 750 750 756 754 753 752 747 743 742 741 742 743 745 747
785 783 782 781 779 776 775 774 775 775 774 773 773 773 774 773 772 772 771 772 765 751 748 750 749 746 743 746 747 746 749 746 739 739 741 740 741 746 753 757 758 761 765 769 771 770 768 769 770 771 775 776 776 777 777 777 778 780 774 769 771 771 774 780 781 780 778 776 774 776 778 770 757 750 750 755 755 751 751 752 748 744 742 741 740 741 742 745
783 782 780 779 778 776 775 775 775 775 773 772 772 773 773 771 772 771 770 774 765 749 747 750 747 744 742 745 745 746 749 744 737 739 739 739 741 741 750 757 758 760 763 768 771 768 766 770 772 771 773 777 776 775 774 774 776 776 769 767 771 772 776 780 778 777 775 774 774 773 774 774 764 751 753 759 753 747 748 750 749 746 743 741 739 740 741 742
782 780 779 778 777 777 777 776 775 774 772 771 772 772 772 771 771 771 772 775 762 747 746 747 744 742 742 744 744 744 744 740 741 742 737 739 742 742 749 753 753 757 758 763 769 765 763 768 770 769 773 776 771 767 769 771 772 768 766 770 770 770 774 775 776 777 778 778 774 770 771 775 766 751 752 758 750 744 746 749 750 747 745 743 740 740 740 742
780 779 778 777 776 776 775 775 774 772 770 771 771 771 770 771 771 772 776 773 757 746 746 745 743 744 745 746 746 744 743 740 742 742 738 740 741 742 748 749 750 756 757 757 761 761 762 763 762 764 769 768 762 762 764 767 767 763 766 771 770 772 775 776 777 775 781 785 774 767 771 773 765 749 746 752 750 751 753 752 750 748 746 745 743 742 744 747
778 777 776 775 774 774 773 773 771 769 769 770 770 770 770 771 771 776 779 770 756 750 747 744 746 747 747 747 745 745 745 742 740 740 740 741 742 742 746 748 750 757 759 758 759 760 761 761 760 761 761 757 757 762 764 762 763 764 766 768 770 775 776 777 778 775 782 783 770 766 768 771 770 753 744 751 756 760 761 755 751 748 746 746 745 745 747 751
776 775 774 774 774 773 773 771 768 768 769 769 769 769 770 772 776 780 776 763 756 753 749 748 750 749 750 752 748 744 744 743 740 741 743 743 745 746 747 750 752 759 765 764 763 763 762 762 760 755 753 755 756 761 766 764 763 765 765 766 771 776 776 778 779 780 784 777 770 774 771 772 773 755 748 758 759 759 759 756 753 752 749 746 745 747 748 751
774 773 772 772 772 771 771 768 767 768 768 768 769 768 769 775 779 777 768 759 758 758 755 755 754 751 753 755 750 744 742 743 741 740 742 744 746 747 747 749 753 763 771 768 765 766 762 759 757 753 751 753 755 760 766 767 766 767 767 770 775 777 781 783 780 781 780 772 775 782 776 773 766 751 754 762 758 756 756 754 753 752 749 746 746 749 751 752
771 770 769 768 768 768 767 766 768 768 768 769 769 768 771 776 775 772 768 763 762 761 759 759 756 754 755 751 745 742 741 742 741 739 741 744 747 748 748 748 748 754 765 768 768 768 763 758 757 757 753 748 751 758 761 763 766 766 766 769 773 777 787 791 785 786 780 770 777 782 776 770 759 753 761 762 757 757 755 753 753 751 750 750 750 751 752 754
768 767 765 765 764 764 764 766 767 767 768 769 768 769 774 775 772 772 771 768 765 764 761 761 758 754 752 748 745 744 743 743 742 740 742 745 750 751 750 750 749 748 757 768 770 768 769 764 755 753 751 745 746 748 748 754 761 762 759 760 764 765 773 779 775 775 771 767 776 780 774 766 758 759 763 758 755 756 754 755 754 753 753 753 753 754 755 757
766 764 763 763 762 762 763 765 766 767 768 767 768 772 773 771 772 774 773 769 768 766 763 761 759 754 750 749 748 745 744 744 744 742 744 746 749 750 748 748 749 750 754 764 769 768 772 765 748 746 749 745 744 741 741 750 759 763 760 759 762 754 754 770 777 774 772 770 775 777 770 763 759 760 760 755 755 756 757 757 756 756 757 755 754 756 758 760
764 763 762 761 762 762 762 763 766 767 768 767 768 772 772 769 772 774 771 769 769 769 765 759 756 755 755 754 752 747 744 745 745 744 745 747 746 748 748 745 747 748 748 756 765 767 769 760 746 746 748 743 742 740 740 745 751 762 763 757 756 749 747 767 783 786 783 775 775 778 770 762 759 760 759 756 756 759 760 760 758 758 757 757 757 758 759 760
763 762 762 762 762 762 763 763 765 767 767 767 767 772 775 772 772 772 769 769 769 769 768 763 758 760 762 761 756 751 746 745 745 744 746 749 747 746 746 744 744 744 740 745 756 759 761 756 746 745 744 741 743 743 740 741 744 755 758 748 749 752 751 758 771 780 783 776 776 781 779 771 765 763 762 760 761 764 763 761 760 759 757 757 759 759 758 756
763 763 762 763 763 763 764 764 766 766 766 767 769 774 778 775 772 772 769 768 769 768 769 768 763 762 765 764 759 754 750 747 746 747 748 749 747 745 744 744 743 744 740 741 748 753 758 756 748 746 746 743 743 744 744 745 744 746 747 742 746 754 755 759 768 773 776 778 777 780 784 777 765 762 764 764 766 766 764 762 761 759 758 758 759 760 759 758
764 763 763 764 764 764 765 765 766 766 765 769 772 773 777 775 771 771 769 768 769 769 769 769 766 765 765 764 760 756 754 751 749 750 750 749 748 746 745 745 744 745 745 743 746 751 756 758 752 747 747 745 743 743 745 746 745 744 745 745 747 751 752 757 762 761 765 775 777 776 775 765 757 761 765 766 766 765 765 764 762 761 761 759 759 760 761 762
764 763 764 766 765 765 766 766 766 766 767 773 776 774 777 774 769 767 766 766 768 767 768 769 768 767 764 761 760 758 756 753 751 752 751 748 748 747 746 745 745 745 746 744 747 750 754 759 757 747 744 746 745 746 747 747 746 745 747 748 749 752 754 755 759 760 760 767 775 777 768 757 761 768 767 767 767 764 764 764 763 765 764 761 761 761 762 764
763 763 766 767 765 766 767 766 769 772 773 777 778 777 776 772 768 767 765 766 766 764 766 767 766 766 765 762 761 759 756 753 752 753 752 749 749 749 747 747 746 746 746 746 747 749 752 757 759 751 746 746 746 748 749 749 749 748 747 745 745 750 752 754 762 768 764 762 770 772 761 756 769 773 767 769 767 763 765 764 765 767 765 765 764 763 764 765
763 764 767 767 766 768 767 769 777 780 776 775 776 775 774 770 770 769 766 766 766 764 765 765 764 765 765 764 762 760 757 754 752 753 754 752 751 750 748 748 748 746 746 747 748 749 750 754 757 754 750 748 748 751 753 752 753 753 751 750 749 747 746 748 755 761 766 768 769 768 760 760 774 776 769 769 767 764 766 765 766 768 766 767 767 766 767 767
763 766 768 767 768 768 768 772 778 778 774 775 776 774 773 772 771 770 767 767 766 766 766 765 764 764 763 764 763 760 758 755 752 753 755 753 751 750 749 749 749 747 745 747 749 750 751 753 756 756 752 748 745 748 753 753 753 753 755 758 758 755 751 750 750 752 761 766 765 764 761 763 774 775 769 769 769 767 767 765 766 767 767 770 771 772 773 772
765 768 769 768 769 768 770 773 775 775 775 776 774 772 773 774 772 770 768 767 766 767 766 764 764 763 763 765 764 760 759 757 754 752 755 755 751 749 749 748 748 746 743 744 747 750 753 755 757 759 760 758 754 753 751 749 752 757 762 765 763 762 761 756 753 753 756 762 762 757 756 764 773 773 770 770 770 770 771 770 770 771 773 776 776 777 778 778
765 768 770 770 769 770 772 774 774 775 777 777 775 774 774 772 770 770 770 768 768 768 767 765 764 764 766 765 764 762 760 760 758 754 756 756 751 749 750 749 748 746 743 743 744 748 755 760 760 760 763 765 763 761 758 755 757 761 767 770 769 769 768 759 753 751 754 766 766 751 752 768 775 772 771 771 771 774 777 777 778 780 781 782 783 783 783 782
762 766 771 772 771 771 775 778 776 774 776 778 776 777 776 772 770 770 770 768 768 768 768 767 765 765 767 765 764 764 763 763 761 758 760 760 755 755 755 753 752 749 745 744 744 747 759 769 768 761 760 761 760 764 769 769 766 765 769 773 773 777 777 765 753 747 751 764 765 754 758 772 775 772 772 772 774 778 782 783 784 785 785 786 787 787 787 786
761 765 771 771 771 773 775 778 777 775 777 778 777 778 778 775 773 771 769 768 769 769 769 769 768 768 769 770 769 768 766 764 761 761 764 764 761 759 758 758 758 753 747 746 746 748 756 767 771 768 769 771 768 771 775 774 775 778 780 778 775 777 775 764 758 759 757 754 755 760 768 772 772 772 772 774 779 784 787 788 789 789 790 789 788 788 788 789
763 766 770 769 769 772 773 775 777 777 778 779 780 781 778 775 775 773 770 769 768 768 768 768 771 773 774 775 773 770 768 765 762 764 766 765 764 760 755 756 758 755 750 747 747 748 752 763 771 773 776 779 776 775 775 777 783 787 786 783 780 777 773 768 772 778 770 756 754 764 771 771 774 777 777 781 785 787 790 791 791 792 792 791 790 790 791 792
765 767 771 770 770 774 777 778 778 777 778 780 781 780 778 775 775 774 773 771 769 770 770 768 772 777 778 777 774 771 771 769 768 769 768 766 768 766 758 754 756 758 756 752 751 750 753 764 771 771 775 779 778 776 777 778 783 786 788 788 784 779 776 774 776 778 773 767 768 771 773 778 784 787 788 790 790 790 792 793 793 795 795 794 794 794 795 796
763 763 767 769 772 777 780 780 778 773 777 781 778 778 779 776 775 776 775 773 770 771 772 771 773 779 779 776 774 773 774 774 773 773 771 769 771 769 765 763 763 764 762 760 757 752 752 763 771 768 770 776 778 778 779 779 782 786 791 793 789 782 779 778 779 780 776 774 776 776 777 785 793 794 795 796 794 793 796 797 798 799 798 798 798 799 800 800
762 763 764 764 771 779 780 781 781 774 775 781 779 778 779 777 779 781 776 774 773 771 771 772 774 778 779 776 774 773 773 775 775 774 772 772 771 768 767 769 770 769 766 765 764 757 754 764 772 766 764 774 780 779 778 781 781 782 791 800 798 791 787 785 786 787 784 779 778 777 779 788 798 800 799 801 799 799 801 803 804 804 803 803 803 804 805 804
763 764 764 762 770 781 781 781 783 777 776 782 783 781 781 778 781 782 775 772 773 771 771 773 772 774 776 774 772 771 770 772 773 772 771 772 771 769 768 769 770 769 767 767 769 768 762 763 768 764 762 774 784 781 778 779 775 779 794 806 804 798 794 791 790 792 793 788 782 781 784 793 800 801 802 806 806 805 807 808 809 808 807 807 807 808 809 808
Wind_Speed
11 11 11 11 10 10 9 9 9 9 10 10 10 10 10 10 10 10 11 11 11 12 12 12 13 13 13 13 14 14 16 18 16 10 7 4 5 4 5 2 9 15 14 17 20 16 11 8 8 8 6 3 0 2 1 1 1 2 2 1 4 4 2 4 4 3 1 5 6 9 7 8 11 9 5 2 2 4 4 6 5 7 8 10 16 23 25 22
11 11 11 11 11 11 10 10 10 10 10 10 10 10 10 10 11 11 11 11 12 12 12 13 13 14 13 14 14 15 18 18 14 10 6 4 9 5 3 5 12 17 17 19 21 18 11 6 7 7 4 2 0 1 1 0 1 2 2 3 5 2 1 2 2 1 2 7 9 8 4 6 8 6 5 5 3 2 3 5 6 9 12 13 18 22 23 23
12 12 12 12 12 11 11 10 10 10 10 10 10 11 10 11 11 11 11 11 12 12 12 13 13 15 14 13 13 15 17 13 7 4 1 7 11 6 5 10 15 18 16 17 20 16 13 13 12 7 3 2 1 1 2 1 2 1 2 5 3 2 1 2 3 3 4 5 9 9 5 6 6 2 4 5 5 3 3 4 6 8 11 14 16 19 21 22
12 12 12 12 13 12 12 11 10 10 10 10 10 10 10 10 11 11 11 11 12 12 12 13 14 15 13 12 12 14 13 5 1 0 2 8 13 6 7 13 17 19 13 13 14 11 14 17 11 4 3 3 1 1 4 2 2 2 3 3 3 2 1 1 3 6 5 3 5 8 8 9 5 1 4 5 6 3 3 6 8 10 14 16 17 18 20 21
13 13 13 13 13 13 13 12 11 11 10 10 10 10 10 10 11 11 11 11 12 12 13 13 14 15 12 10 10 12 8 0 2 2 6 11 13 3 10 14 19 19 12 12 12 11 15 13 6 3 2 3 3 3 3 3 2 3 5 2 3 1 3 2 5 6 4 2 4 7 8 9 6 3 4 5 6 2 1 8 11 13 17 18 19 19 19 19
13 13 13 13 14 13 13 13 12 11 11 11 10 11 10 11 11 11 11 11 12 12 13 13 14 15 11 9 8 7 4 1 2 6 10 12 9 4 13 15 21 18 10 13 14 14 13 7 5 5 2 3 5 4 3 3 2 4 5 1 2 3 4 3 6 6 3 3 6 6 5 6 8 7 3 5 6 2 1 8 13 15 17 19 21 19 19 19
13 13 13 14 13 13 13 13 13 12 11 11 11 11 10 11 11 11 11 11 11 12 12 12 14 14 10 8 5 2 1 4 6 8 11 9 2 10 15 18 22 15 10 16 13 9 9 6 6 4 4 3 3 4 3 4 3 7 5 1 2 3 4 5 6 7 4 5 7 5 5 6 7 7 3 3 4 2 4 10 13 15 17 18 19 18 19 19
12 13 13 13 13 14 14 13 13 13 12 11 11 11 11 11 10 10 10 10 11 11 11 11 13 12 10 7 3 2 1 4 7 9 8 3 7 15 18 20 20 13 13 17 12 9 8 8 7 4 4 3 3 6 4 4 5 9 7 1 3 4 5 5 5 7 6 6 5 4 7 7 5 4 4 4 2 5 7 11 14 15 16 17 17 17 17 17
12 13 13 13 14 14 14 14 14 13 13 12 12 12 12 12 11 11 10 10 10 10 11 10 11 10 8 5 2 3 2 2 7 7 4 2 13 19 17 18 19 13 12 13 13 12 8 6 6 4 4 2 5 8 5 5 4 6 6 4 6 5 4 3 5 8 6 3 2 5 9 5 2 3 4 2 3 7 11 13 14 16 17 17 15 16 16 16
13 13 13 14 14 14 15 15 14 14 14 13 13 12 13 12 12 12 10 10 9 9 10 9 10 9 6 3 1 2 3 2 5 7 6 4 15 21 16 14 18 14 10 8 9 11 5 4 5 3 3 3 5 5 4 5 2 2 4 4 7 6 4 3 5 7 5 3 5 7 10 3 2 2 2 2 6 10 13 13 14 16 17 17 15 14 14 15
14 13 14 14 14 15 15 15 15 15 14 14 14 14 14 13 12 12 11 12 9 9 9 6 8 6 4 2 0 3 3 1 3 6 8 6 14 19 12 10 16 14 11 7 7 10 4 4 6 2 1 3 5 4 2 3 1 1 2 4 4 4 4 3 5 6 3 4 7 6 7 1 1 3 2 3 9 12 14 14 14 15 15 16 16 14 12 13
13 14 14 14 15 15 15 15 15 16 15 15 15 15 15 14 13 13 13 13 11 9 6 4 5 3 4 1 4 7 5 3 1 2 5 7 11 12 4 4 10 11 10 6 6 11 6 4 7 3 0 4 5 3 2 2 1 2 1 4 3 3 3 2 4 4 2 4 4 5 6 2 3 4 2 2 10 11 13 14 13 14 14 14 15 12 10 13
13 14 14 15 15 15 15 16 16 16 16 16 16 16 16 15 14 14 14 13 11 8 3 1 2 2 3 1 4 6 6 7 6 5 8 8 8 7 6 7 8 9 9 6 4 8 9 6 5 2 1 3 3 1 2 1 2 3 0 2 3 3 3 1 1 2 2 3 3 4 6 3 4 3 2 3 10 12 12 13 13 14 13 13 13 11 11 13
14 14 14 15 15 16 16 15 16 16 16 16 17 17 18 16 15 13 13 12 9 5 1 1 0 3 3 5 8 7 7 10 13 14 15 14 12 10 9 7 9 11 9 6 3 2 8 8 3 2 1 1 1 1 0 2 1 2 1 1 1 2 2 2 1 2 1 1 2 5 5 4 4 3 1 4 10 12 12 12 12 13 13 13 13 12 12 13
14 14 15 15 15 16 16 16 16 16 16 17 18 19 18 14 11 10 9 7 4 1 4 3 1 3 0 7 8 7 7 9 12 15 15 17 15 8 7 10 11 11 9 7 3 2 5 9 3 2 2 0 0 0 1 1 2 1 2 2 0 1 2 4 1 1 2 2 2 4 4 4 4 3 1 5 10 11 11 12 12 13 13 13 13 12 12 12
14 14 15 15 16 16 17 17 17 17 17 17 20 19 13 8 7 6 3 1 2 4 6 4 2 2 1 3 1 2 4 5 5 6 6 11 15 8 6 10 9 9 7 6 5 2 5 8 2 1 1 1 1 1 1 1 0 2 2 3 1 1 1 2 1 2 3 2 3 1 1 3 2 1 2 6 11 11 10 12 13 13 14 14 13 12 11 12
15 15 15 15 16 16 17 17 17 17 17 18 20 14 6 5 6 5 4 7 7 7 7 3 3 2 2 2 1 3 3 2 2 3 2 4 11 11 9 8 6 7 5 2 4 3 3 4 1 1 1 0 1 1 1 4 3 1 1 2 1 1 1 1 1 1 4 3 3 2 2 6 6 1 3 7 11 11 11 12 13 13 13 13 13 13 12 12
15 15 16 16 16 17 18 17 18 17 17 19 17 7 4 6 5 5 7 10 9 8 5 2 2 2 2 1 2 2 0 2 5 7 6 2 9 12 8 6 7 9 5 2 2 3 1 1 0 2 2 1 3 3 4 3 2 3 2 2 2 2 2 1 2 2 5 5 4 3 3 8 11 4 5 8 10 12 12 12 12 13 13 14 14 14 13 13
15 15 16 16 16 17 17 18 18 17 17 17 10 2 4 6 4 4 6 6 4 3 1 1 3 1 1 1 2 4 4 7 8 6 3 4 10 10 6 7 9 7 4 3 2 2 2 2 2 4 4 4 5 5 6 3 3 4 2 1 3 3 3 2 3 4 4 6 7 8 7 7 10 8 4 7 9 12 13 12 11 12 13 14 14 14 13 15
16 16 15 15 16 17 17 18 17 17 18 14 6 1 1 2 1 1 1 2 4 4 2 3 6 4 4 1 1 4 5 5 4 1 4 7 12 11 4 4 5 3 3 3 2 1 2 3 4 5 5 4 5 6 5 3 3 4 1 2 4 6 3 2 3 6 3 4 7 7 6 6 8 11 7 5 7 10 12 13 12 13 14 14 16 16 15 15
16 16 15 16 16 16 17 17 16 17 14 8 3 1 1 0 1 1 2 5 7 7 8 8 8 8 6 2 3 5 4 3 3 2 4 9 14 11 3 2 4 3 2 2 3 2 2 5 5 4 5 5 5 5 5 4 3 2 3 3 4 6 3 0 4 6 2 4 5 3 4 7 9 12 9 4 7 10 13 14 15 16 16 14 16 17 14 13
16 16 15 16 16 17 17 15 17 16 7 2 2 2 1 1 1 2 2 5 5 7 10 9 6 10 9 6 6 1 2 3 5 5 7 9 8 6 4 4 5 4 2 2 3 2 3 6 6 5 5 4 4 4 5 4 3 3 2 2 5 4 3 3 4 2 2 3 4 2 4 9 10 13 11 3 6 10 10 13 15 16 16 14 16 16 12 12
16 16 16 16 16 17 17 15 16 10 2 3 6 3 2 1 3 4 3 4 6 3 6 6 5 8 8 8 9 8 6 6 5 5 10 11 4 4 7 6 6 4 3 5 6 4 3 4 5 5 6 5 4 4 5 3 2 3 3 4 5 1 1 4 2 1 2 3 6 6 6 9 9 10 8 2 4 7 7 11 13 14 15 16 16 16 15 17
16 16 15 16 17 17 16 16 11 2 4 11 8 4 3 3 5 3 3 2 4 2 3 6 5 6 5 4 8 13 7 6 5 4 12 14 4 4 7 6 6 5 5 8 7 6 4 2 1 6 7 7 5 4 5 3 3 3 4 6 5 2 5 8 3 2 4 3 4 6 6 6 4 5 4 3 2 4 5 9 12 13 14 14 14 15 18 20
16 15 16 16 16 17 16 12 3 1 10 12 3 5 0 7 6 3 3 2 2 3 1 4 3 4 4 2 8 10 4 4 7 4 10 14 8 5 4 3 4 7 7 7 5 6 5 1 5 7 4 5 5 4 5 5 4 3 5 9 9 8 9 7 1 3 5 1 2 1 4 3 1 3 4 1 2 3 1 5 10 12 13 13 13 16 17 17
16 15 16 15 16 18 13 4 2 8 13 4 6 3 5 10 5 6 3 3 1 3 1 2 2 3 3 4 6 5 3 3 5 5 9 13 11 6 3 3 1 5 6 6 3 3 2 4 7 6 5 5 5 4 5 6 4 3 3 8 11 11 8 4 3 2 3 1 1 1 4 4 2 3 3 4 6 4 0 2 4 6 10 12 13 15 16 16
16 16 16 15 15 15 8 2 7 11 6 3 4 3 9 11 3 7 2 2 1 2 1 0 1 2 2 3 6 4 3 1 1 5 9 10 8 2 3 6 2 2 4 3 2 2 2 5 6 5 5 5 5 5 5 7 5 2 1 6 8 8 7 6 6 5 3 3 1 1 2 5 5 2 1 4 7 6 1 3 5 3 6 11 14 15 17 18
16 16 15 14 13 11 6 7 10 6 2 1 3 7 11 7 3 5 1 2 1 1 2 0 1 3 1 2 5 3 1 2 1 2 3 7 7 1 4 9 7 6 6 5 5 2 3 6 8 8 6 4 5 5 7 10 6 3 2 4 5 5 5 6 5 4 1 2 4 2 3 4 5 2 1 2 5 5 5 7 8 7 4 9 13 15 16 17
16 16 15 15 14 11 8 8 7 5 3 3 6 11 10 1 5 2 1 1 1 1 2 1 1 1 2 1 5 5 3 2 1 1 1 5 5 1 3 6 6 7 5 4 5 1 1 4 6 8 6 6 7 4 8 13 7 1 5 4 2 3 2 3 4 3 2 2 5 3 5 4 5 2 2 1 2 4 7 9 9 8 6 7 10 12 13 11
17 16 15 15 14 10 6 8 10 7 4 5 8 11 6 3 3 1 1 1 2 1 0 0 0 2 3 1 2 3 4 3 1 2 2 3 2 2 1 2 5 5 2 2 3 0 1 1 2 5 5 5 5 3 6 10 5 3 5 4 3 3 2 1 1 1 3 4 4 3 6 5 4 2 2 1 1 5 8 9 10 10 7 4 7 8 9 6
17 17 15 14 11 7 4 5 5 1 1 7 11 8 1 2 1 1 2 2 1 1 2 2 1 2 5 4 2 1 3 3 1 4 4 3 3 2 2 3 3 3 2 2 3 1 1 1 1 3 3 2 3 3 2 3 2 2 2 1 1 1 2 2 2 1 4 4 1 1 3 4 5 3 1 2 4 6 8 10 11 10 6 3 4 4 5 6
18 18 17 14 11 10 8 5 2 1 4 10 10 3 2 1 1 2 1 2 1 2 2 2 3 5 6 3 2 2 2 2 3 5 4 5 6 4 3 4 4 3 2 4 3 1 2 4 3 3 2 4 4 3 2 2 3 3 2 2 2 2 2 2 2 2 4 3 1 0 2 3 6 3 4 4 6 8 8 8 9 7 5 2 2 5 6 7
20 20 18 14 12 14 12 7 6 8 9 8 4 2 3 1 2 2 2 2 1 2 2 2 5 7 6 3 1 3 1 1 2 4 3 4 6 5 1 1 3 3 1 3 2 1 3 3 2 2 3 5 7 6 4 3 5 6 5 4 4 3 2 2 2 1 4 1 2 1 2 3 4 0 4 6 6 7 7 6 6 5 4 4 5 7 8 8
21 18 15 11 11 14 11 6 5 5 5 3 1 2 2 2 1 1 1 2 1 2 3 3 6 7 2 0 2 3 1 1 1 4 3 4 5 5 2 1 3 2 2 2 1 2 3 3 4 5 1 5 11 10 5 3 5 5 4 3 4 3 2 3 3 3 4 1 3 2 3 3 2 2 3 5 4 5 5 6 8 8 7 8 9 8 8 7
18 13 10 9 8 9 8 9 7 3 2 1 2 2 2 2 1 1 1 2 2 3 4 3 3 3 2 1 3 3 1 1 2 2 3 3 5 5 4 4 4 2 3 3 1 1 2 4 4 3 0 5 10 7 3 4 3 2 2 2 2 3 2 0 0 0 2 0 1 2 2 2 1 1 3 2 2 6 7 7 10 10 8 9 9 9 8 7
14 8 6 5 4 4 2 9 11 5 1 1 3 1 1 1 1 2 1 1 1 3 6 4 1 1 3 2 2 3 2 1 2 1 2 1 2 3 3 2 4 4 4 4 2 1 1 2 1 0 2 5 6 4 5 4 3 3 3 4 1 0 2 2 1 2 1 3 1 1 2 2 1 1 3 3 4 7 8 9 9 9 8 8 8 8 7 7
11 6 2 3 2 1 3 8 11 7 2 2 2 1 1 1 1 2 1 1 1 1 2 2 2 2 2 2 2 4 5 1 1 1 2 1 1 3 3 2 4 7 6 3 2 2 2 2 1 1 3 3 1 2 3 1 2 4 3 3 3 1 1 1 1 1 1 4 2 1 2 3 2 0 2 3 5 7 7 8 9 8 7 8 8 7 6 6
9 5 2 4 3 5 7 9 10 5 2 2 1 1 1 1 1 2 1 1 0 1 1 1 1 2 2 1 2 4 5 2 2 1 2 1 1 2 1 1 3 4 4 3 2 2 2 3 2 2 2 0 1 2 3 1 1 0 1 2 3 2 2 2 2 1 2 3 1 1 1 3 3 2 3 4 4 6 6 6 7 6 6 7 8 7 5 4
5 2 2 5 3 8 8 7 5 2 2 1 1 0 1 1 2 3 2 0 1 1 0 1 1 1 1 1 2 2 3 2 2 1 1 1 1 1 1 0 1 1 1 3 4 2 1 3 2 1 2 1 1 1 2 3 2 1 1 2 0 2 1 2 2 1 2 3 1 1 1 2 2 2 4 4 4 6 7 6 6 5 4 5 6 6 5 3
2 1 2 5 3 9 6 3 1 2 2 1 1 0 0 2 2 3 3 2 1 1 1 1 1 1 2 2 2 1 2 1 1 1 1 0 1 1 1 1 1 2 1 4 4 1 1 2 3 1 2 2 1 0 1 2 3 2 4 4 2 1 0 1 1 1 1 2 2 2 2 1 1 1 3 3 3 6 7 7 8 6 4 4 4 5 5 5
1 2 2 4 5 9 3 1 1 2 1 0 0 1 1 1 2 3 2 2 3 2 1 2 2 1 2 2 1 1 2 1 1 1 0 0 1 0 1 2 1 2 0 4 4 2 1 2 2 2 2 2 0 1 0 1 0 1 2 3 3 3 2 3 3 1 0 1 1 2 3 1 2 1 2 3 3 6 8 8 8 7 6 5 5 5 5 5
1 2 3 1 7 5 1 1 1 1 1 0 0 1 2 2 2 3 2 0 2 2 0 1 2 2 2 2 2 1 2 2 1 0 1 0 2 2 2 2 1 2 1 2 2 1 1 2 2 2 2 2 1 1 1 1 1 1 0 1 0 1 2 4 5 3 2 1 1 1 2 1 1 2 2 3 2 5 8 9 9 8 7 6 5 4 3 4
2 2 2 2 6 2 3 1 1 1 0 1 2 2 1 1 1 2 2 1 1 1 0 1 2 2 2 1 1 1 2 2 1 1 1 0 3 3 5 5 2 3 1 0 0 1 0 1 1 2 1 2 1 2 2 2 2 2 2 3 1 1 1 2 2 1 3 3 2 2 3 2 1 1 3 3 2 4 6 9 10 9 7 7 7 7 6 4
2 1 2 4 3 3 2 2 1 1 0 2 2 1 1 1 1 1 2 2 1 0 0 1 1 1 1 1 1 2 2 2 1 2 1 1 2 2 6 8 4 2 1 1 2 1 1 1 1 2 2 1 2 2 3 2 1 1 2 3 2 2 1 1 1 1 2 2 2 4 3 2 1 2 5 5 4 5 4 6 7 7 6 7 7 7 7 8
1 1 1 0 1 2 1 1 0 1 0 2 2 2 3 1 1 1 1 1 2 1 1 1 1 0 1 1 1 1 2 1 1 3 2 0 1 2 6 11 9 4 2 1 4 4 1 0 0 2 4 4 3 2 2 1 0 0 2 4 5 5 2 1 2 3 4 2 2 3 2 2 1 3 7 6 6 7 7 7 8 8 8 7 7 7 7 7
1 1 0 1 2 2 1 0 0 1 0 0 0 2 2 1 2 1 2 1 1 1 0 1 1 0 2 3 2 2 3 1 1 2 3 3 2 2 5 9 9 7 4 4 5 4 3 2 1 1 1 2 1 0 1 2 1 1 3 5 7 6 3 2 2 2 3 4 3 2 2 5 4 5 7 7 6 7 7 7 8 8 9 8 7 7 8 8
1 1 1 1 0 1 1 1 1 1 0 1 0 2 2 2 3 1 1 0 1 1 0 1 3 3 2 4 2 2 3 2 1 2 3 4 2 2 3 3 5 12 9 2 2 1 3 2 1 3 3 2 1 1 1 2 3 2 4 6 7 7 4 1 1 1 1 3 3 2 5 7 6 5 6 7 7 7 7 7 8 8 8 7 6 7 9 10
1 1 1 0 0 1 1 1 1 2 2 0 0 1 2 2 2 1 1 1 1 2 0 1 4 5 3 2 1 1 3 2 2 3 2 3 3 3 2 1 2 10 11 3 1 1 3 2 2 3 3 2 2 2 3 5 5 6 7 7 8 9 6 4 2 3 3 1 0 5 9 7 5 4 5 7 8 8 8 7 7 8 8 7 7 9 11 11
1 2 0 2 1 1 1 0 1 3 2 1 1 1 1 2 3 1 1 1 2 3 2 1 4 5 3 2 1 1 3 2 2 3 2 3 3 2 3 0 1 7 9 4 3 1 1 2 2 4 4 4 4 4 4 5 5 6 10 9 8 8 8 8 6 5 5 4 4 8 11 8 7 6 7 8 7 8 9 7 8 9 8 9 10 11 12 12
0 2 1 1 2 1 1 1 1 2 1 2 1 1 1 1 3 3 1 1 1 2 2 2 3 3 3 4 3 2 2 2 2 2 2 3 3 1 2 0 1 5 8 5 3 3 1 2 1 2 4 4 5 5 4 4 5 7 10 11 10 8 8 7 6 6 5 5 6 9 9 7 6 6 9 8 7 9 9 9 10 9 9 10 12 12 12 12
1 1 1 3 2 2 1 1 1 1 1 1 0 0 1 1 3 3 2 1 1 1 1 2 1 2 2 3 2 2 2 2 4 5 5 4 3 2 2 1 2 2 6 4 3 4 2 2 1 1 3 2 4 5 4 3 4 5 8 11 11 8 5 5 5 5 4 2 6 7 5 4 4 7 9 9 9 11 11 11 10 9 10 12 12 12 11 12
1 2 1 3 2 2 1 1 1 1 1 0 1 1 1 1 2 1 1 1 1 1 1 1 1 1 1 0 2 4 4 4 6 7 6 5 5 3 3 3 4 4 3 2 1 2 1 3 3 2 3 3 3 3 3 2 0 1 4 6 8 6 5 4 3 5 6 3 2 3 3 4 6 7 9 10 10 11 11 9 8 9 11 12 13 12 12 12
Wind_Direction
352 351 350 350 350 353 356 358 360 1 360 358 357 355 352 351 348 346 345 345 345 342 340 340 337 334 329 326 325 324 322 316 312 300 268 288 343 299 272 249 173 168 158 155 153 138 119 120 121 131 134 107 356 145 148 303 120 199 183 191 226 223 193 178 194 189 333 346 335 336 357 342 330 341 344 315 69 99 88 63 63 56 68 95 117 134 140 145
352 351 350 348 349 351 354 356 358 360 360 359 357 354 351 349 348 347 346 346 344 343 342 340 338 336 333 333 331 325 321 316 306 279 252 13 11 323 249 171 169 167 157 158 158 146 131 131 140 142 128 116 185 130 175 210 185 205 134 225 231 187 150 183 219 254 313 323 327 327 345 332 322 330 327 328 2 144 131 83 89 86 93 110 126 138 143 146
352 351 350 348 347 348 350 354 355 357 356 356 356 352 350 348 346 345 345 345 343 343 342 341 340 337 340 340 333 325 322 317 306 266 252 13 3 332 204 167 169 167 161 166 165 160 153 150 151 140 106 131 129 158 169 160 203 187 179 233 223 132 196 209 242 269 276 301 316 321 332 311 309 320 301 325 326 236 178 127 127 124 124 130 138 144 146 149
352 351 349 346 346 346 347 350 351 353 354 354 354 351 350 347 346 344 344 344 342 343 343 343 340 340 347 345 335 329 324 314 263 262 348 349 352 346 177 165 169 165 156 162 159 160 154 144 140 121 112 131 83 170 169 182 192 159 215 228 118 116 234 194 251 276 282 285 310 316 315 307 324 353 279 314 313 270 170 167 164 156 148 145 151 152 152 154
352 350 349 346 345 344 344 347 347 350 352 352 351 351 349 346 346 345 345 343 343 346 344 343 340 342 349 349 341 330 320 329 142 312 333 340 346 6 157 161 168 161 148 156 145 134 139 134 128 106 104 134 144 165 177 195 163 184 234 223 116 237 290 300 284 281 285 306 307 305 309 314 323 287 266 289 284 305 121 174 170 164 159 158 159 156 156 158
350 349 348 345 344 343 342 344 344 346 348 348 348 348 347 344 345 345 345 343 344 345 343 344 340 341 350 353 343 336 325 274 311 319 324 334 349 129 150 153 162 160 150 150 136 130 131 126 145 144 133 138 163 166 166 185 182 232 242 245 187 235 270 271 279 282 299 307 292 297 312 315 309 306 280 246 251 274 166 178 171 167 164 162 160 157 160 161
349 347 346 344 343 342 341 341 340 342 343 345 344 344 343 341 341 341 341 340 342 342 341 343 340 341 355 356 341 11 17 269 304 326 320 328 36 147 149 148 156 158 152 144 130 133 134 137 158 151 149 135 172 176 155 167 200 242 242 17 242 214 235 249 264 278 289 271 272 289 300 290 291 313 327 260 252 214 183 172 168 166 162 160 160 161 162 161
347 347 346 343 342 341 340 338 338 339 339 340 339 339 338 336 336 335 337 336 338 338 337 343 342 344 358 6 358 342 248 258 320 332 322 339 147 156 147 148 158 156 154 153 143 145 142 154 164 152 167 149 182 176 153 169 196 237 242 291 264 233 241 253 264 273 272 261 264 267 274 275 272 295 300 287 226 176 164 158 160 162 162 162 165 166 163 161
345 346 345 343 341 339 338 337 337 337 337 337 335 335 332 331 332 332 333 329 332 333 333 341 338 343 2 15 22 326 270 288 345 352 356 114 157 159 150 152 164 159 154 159 154 156 156 171 175 182 191 143 174 174 163 195 199 226 233 248 257 265 269 260 264 266 270 264 202 252 274 279 286 284 279 298 157 165 152 152 159 161 164 165 168 169 166 164
343 344 344 342 340 339 338 337 337 336 336 336 334 331 328 330 331 330 327 322 325 325 327 338 333 344 16 33 48 315 289 322 14 35 46 126 160 160 159 161 167 163 151 152 161 166 169 182 180 194 179 130 166 166 160 198 201 183 214 246 252 275 286 255 266 268 286 274 196 242 277 295 24 294 264 89 142 160 152 154 163 165 169 169 169 170 170 170
341 342 342 341 340 339 338 337 337 336 335 335 333 330 329 333 330 325 319 316 318 317 323 338 333 351 56 61 123 251 274 131 70 53 66 118 159 162 163 169 172 171 156 146 181 183 177 178 175 171 166 153 159 157 184 205 318 252 238 275 257 279 277 228 257 268 289 268 195 207 265 278 85 265 282 117 156 162 156 158 164 169 174 173 170 168 170 175
340 340 339 340 340 339 338 338 337 336 334 334 332 331 332 333 327 319 311 310 312 308 317 336 327 12 75 62 227 239 252 219 201 89 112 125 149 157 162 200 188 190 174 161 201 198 198 183 175 172 142 162 152 150 200 185 294 279 294 291 288 323 305 226 252 266 243 259 164 167 263 250 185 236 347 132 168 167 163 161 165 173 176 176 173 169 174 177
339 338 338 339 339 338 338 338 338 335 334 335 333 331 331 329 322 313 306 305 304 296 304 352 319 53 76 251 237 246 249 243 249 229 199 180 178 203 265 257 224 221 205 185 179 195 205 195 177 174 153 173 159 126 145 111 281 272 212 268 314 325 306 140 255 291 236 258 117 167 264 261 212 252 333 196 175 171 173 168 169 176 178 180 178 174 178 179
337 338 338 338 338 338 337 337 337 334 333 334 332 330 330 326 317 309 304 300 294 278 236 111 86 96 106 256 271 280 259 246 248 242 230 221 225 250 259 232 219 222 221 207 168 198 212 197 168 171 178 202 161 132 147 31 2 299 256 181 352 288 286 357 297 307 271 318 105 194 247 278 275 319 354 202 183 178 182 177 175 180 182 184 184 180 182 185
337 337 337 338 338 337 337 337 336 333 334 334 331 331 330 327 322 315 306 298 295 201 147 136 135 101 27 277 284 288 257 236 243 251 248 235 227 239 230 202 203 212 215 211 199 24 185 180 166 178 184 314 235 274 339 7 49 2 269 206 74 220 304 337 327 16 345 22 41 207 230 286 294 344 64 188 190 189 189 185 182 186 190 190 187 183 184 189
336 336 337 336 336 336 336 336 334 334 335 334 333 334 335 346 354 339 322 89 100 121 129 126 134 131 283 284 327 314 254 231 257 275 261 231 217 206 181 175 174 188 201 210 203 93 135 159 147 135 188 232 206 61 36 277 185 54 285 241 292 232 274 331 135 59 351 10 17 339 283 298 275 105 135 187 194 198 199 196 192 193 196 197 192 187 187 190
335 334 333 333 335 335 335 335 334 334 334 334 337 339 356 34 30 28 73 101 106 118 121 109 124 160 269 264 243 286 267 238 312 322 310 235 211 186 146 139 137 153 163 161 179 165 131 150 148 116 110 313 155 132 193 239 231 175 267 245 268 243 226 318 220 37 4 1 13 14 306 285 277 183 148 195 199 200 208 207 202 200 200 203 201 197 193 192
333 331 331 332 334 333 334 335 332 334 334 335 340 350 67 71 61 71 97 105 105 117 116 91 126 196 250 222 255 276 309 306 319 308 293 254 193 178 147 128 125 131 132 84 136 177 170 150 210 158 143 160 167 182 201 219 219 191 190 230 256 239 206 258 267 324 350 335 322 315 280 278 282 262 169 200 205 202 212 214 208 207 206 205 207 207 201 199
331 330 331 331 332 332 333 332 331 333 332 336 348 38 85 83 89 94 106 106 114 144 139 178 174 240 279 198 266 292 309 308 310 297 246 166 168 165 131 119 126 125 140 156 162 184 183 135 150 186 190 185 177 194 205 179 139 148 139 248 268 277 247 212 256 280 307 303 295 288 276 273 283 281 212 195 205 208 214 217 215 214 211 209 211 212 208 206
330 330 329 328 330 331 330 328 329 330 328 335 357 76 70 76 89 94 141 203 218 244 297 192 192 256 292 260 322 328 316 302 301 258 156 153 152 146 116 107 123 130 151 164 163 159 193 184 191 203 183 161 178 196 193 153 129 131 153 266 272 279 277 137 232 255 235 263 278 274 270 264 271 278 261 180 188 214 216 216 217 215 215 213 213 214 211 211
329 329 328 328 328 328 328 327 327 327 325 334 349 297 243 135 36 343 282 250 231 237 253 227 207 241 271 340 36 34 13 309 291 241 172 152 147 149 160 138 150 173 162 131 120 116 199 209 215 207 169 155 176 178 151 137 145 167 221 261 274 268 280 239 256 270 216 228 264 264 271 266 260 269 269 171 178 216 216 212 213 213 215 215 213 213 210 209
327 328 327 327 326 324 326 328 327 324 324 12 336 287 220 112 4 279 274 285 266 230 239 243 244 260 270 280 276 348 50 277 275 245 186 159 161 174 161 150 179 180 126 116 132 144 200 221 224 201 161 123 104 138 147 148 165 187 209 251 265 268 308 281 254 275 187 214 265 267 267 272 268 270 272 228 205 228 224 217 216 211 210 213 213 208 203 203
325 325 325 324 324 323 325 330 327 321 346 353 315 263 177 26 316 258 221 287 290 252 231 227 236 256 261 266 239 192 191 222 240 237 183 168 182 178 154 167 184 151 140 178 186 188 193 240 229 175 155 135 107 136 147 139 176 191 197 236 253 288 359 267 240 155 209 231 271 277 280 277 272 272 271 225 217 248 250 240 233 221 212 211 209 202 198 197
324 324 324 323 324 323 326 329 323 307 348 326 301 200 161 347 332 236 199 273 285 285 224 201 213 234 245 270 192 179 192 202 212 225 172 166 151 144 168 173 161 157 189 189 186 200 212 281 137 141 162 166 145 143 157 181 226 210 209 231 253 237 228 247 277 324 272 238 249 268 273 263 257 267 250 146 190 262 262 250 242 232 223 215 207 202 202 201
324 324 324 325 326 326 330 334 324 297 329 320 234 167 27 339 335 195 202 319 277 278 235 180 212 222 211 145 164 180 192 205 228 221 163 168 155 137 164 151 162 197 196 166 165 213 227 173 129 133 164 180 165 173 185 200 230 244 214 218 232 233 229 234 255 327 289 241 135 276 275 251 199 257 248 255 301 286 281 257 247 234 225 218 208 202 204 206
324 323 325 328 329 333 339 349 334 325 322 299 174 179 336 335 322 187 194 2 288 280 358 160 210 209 196 144 162 188 172 212 243 192 175 181 163 143 151 138 201 213 174 144 157 229 223 161 156 152 162 180 190 207 196 189 220 271 221 205 218 229 228 210 180 217 268 282 109 315 290 283 278 254 259 308 303 288 357 316 282 245 221 216 212 206 203 203
323 323 325 327 333 342 349 306 316 321 310 185 190 285 329 327 287 182 210 10 278 274 86 185 228 184 229 172 172 183 165 317 326 167 190 190 169 156 176 165 179 181 140 134 197 219 148 155 167 167 165 177 201 222 194 180 203 259 181 183 196 211 214 198 198 212 252 319 287 188 241 273 279 254 228 307 295 284 317 19 358 320 230 218 215 212 209 207
321 322 323 324 330 333 313 291 308 299 219 154 301 314 328 325 178 176 299 67 240 305 89 260 181 145 37 150 185 218 300 347 32 154 209 186 180 257 202 189 181 161 148 168 203 185 134 174 183 172 169 191 210 211 175 174 209 251 164 168 179 194 203 188 195 215 222 310 269 193 163 249 272 243 181 306 283 287 336 351 349 346 288 233 222 220 218 216
320 320 320 323 322 316 296 272 269 258 264 331 324 324 330 320 154 150 28 140 253 8 99 195 160 135 16 133 208 251 297 335 23 36 122 177 191 240 204 194 153 142 154 197 215 135 92 211 194 169 174 209 212 186 163 176 205 228 136 131 109 121 137 161 195 204 154 240 260 196 164 238 280 261 234 260 264 305 335 334 333 340 318 254 235 233 228 227
319 316 317 322 318 319 313 264 259 269 292 316 323 327 335 144 149 50 111 224 293 35 111 252 78 312 348 21 239 242 237 270 355 114 123 158 174 41 77 111 99 127 147 267 257 70 36 323 165 175 196 214 205 167 169 182 178 108 133 131 92 102 103 130 178 160 183 235 257 184 176 226 277 272 237 232 357 331 322 320 324 328 322 270 245 245 229 212
315 313 314 314 306 308 311 276 279 295 293 323 330 332 27 125 65 104 157 250 297 7 347 3 353 327 7 9 310 271 220 239 197 152 149 160 152 109 143 138 105 122 147 231 250 278 325 277 190 217 205 153 161 169 171 184 166 129 161 158 138 147 128 142 137 155 224 243 310 98 161 203 242 257 56 33 349 335 318 318 325 322 320 293 238 225 193 149
313 311 307 298 281 262 251 253 293 318 310 326 334 345 134 150 235 179 240 287 310 3 349 344 323 326 348 341 255 269 242 203 188 170 152 166 172 164 177 176 160 151 178 211 219 358 248 229 247 278 219 173 184 191 143 132 185 199 196 197 216 196 151 194 191 188 237 248 48 58 138 194 247 274 38 8 334 339 334 326 326 320 323 324 167 138 130 131
313 311 305 294 269 250 248 260 276 277 295 317 331 48 92 125 215 215 304 325 40 5 324 298 314 310 314 325 306 295 277 133 190 186 141 149 175 174 133 96 160 158 163 196 196 227 230 245 239 242 235 191 188 207 203 172 183 189 182 184 198 180 155 201 188 216 258 266 64 132 169 223 257 346 38 353 342 354 350 353 1 3 33 71 102 117 125 134
316 314 307 294 269 260 259 251 252 270 294 315 70 88 111 165 222 193 15 325 309 339 313 300 314 308 299 9 336 334 8 57 128 169 145 134 170 190 184 160 180 141 90 151 181 201 217 263 204 188 202 176 189 211 218 151 161 180 175 175 198 197 195 220 207 229 255 232 84 133 178 218 238 96 30 342 4 31 26 46 57 53 71 93 93 92 103 118
322 318 305 291 277 282 267 221 212 248 294 25 79 95 157 193 251 127 94 294 296 327 314 308 319 324 355 319 318 348 353 2 51 135 159 151 170 189 191 192 191 152 134 173 196 167 210 272 236 199 345 177 192 201 154 127 154 162 154 177 224 221 184 215 298 240 275 239 120 190 230 246 249 40 24 352 53 70 63 70 77 70 74 93 97 92 86 74
330 329 310 297 290 321 295 197 198 215 239 92 88 115 194 221 237 145 130 303 326 328 314 318 25 22 354 326 322 350 334 346 41 135 170 167 183 176 180 199 181 176 178 178 189 154 178 269 268 262 231 200 202 187 162 193 187 132 180 198 209 223 138 128 99 71 36 255 226 176 269 274 246 41 53 70 94 90 77 75 88 89 89 94 93 94 93 78
341 353 4 5 1 39 114 161 174 182 152 86 112 175 235 226 187 181 189 315 297 343 337 336 10 28 1 327 312 333 329 344 27 232 163 164 208 165 176 200 176 196 204 188 209 211 205 256 249 204 218 215 263 171 154 216 147 139 197 184 124 93 100 122 220 93 161 247 246 103 281 291 282 243 99 90 88 97 92 88 98 102 106 110 105 106 114 111
337 349 25 19 42 122 127 141 156 160 103 74 121 241 245 171 188 233 251 322 257 36 39 265 323 18 19 317 293 322 324 336 13 348 170 186 218 127 158 196 172 207 223 205 219 205 202 256 263 200 217 342 20 173 145 120 170 183 238 141 140 215 188 145 206 203 215 240 234 132 263 266 240 196 148 121 96 113 120 110 109 106 109 122 125 128 127 114
329 342 36 11 76 137 133 138 149 130 75 104 206 257 235 238 259 236 222 287 125 113 354 240 265 355 337 286 274 307 317 324 357 339 190 203 208 135 6 280 148 358 281 195 199 155 158 247 245 175 221 299 46 205 196 173 169 108 143 156 280 280 212 167 183 201 232 239 210 186 247 233 211 139 129 131 120 136 144 129 114 109 118 131 131 133 128 116
338 147 34 5 122 147 142 140 124 36 80 156 224 130 260 271 280 252 223 229 220 208 249 199 173 285 288 279 270 279 293 293 308 278 239 233 185 178 22 30 22 354 39 179 196 142 113 231 235 211 251 259 197 248 262 199 182 182 187 189 181 135 85 176 148 62 256 222 176 215 247 193 92 92 139 157 138 132 136 131 121 112 120 141 146 148 141 136
358 131 24 2 143 152 148 60 38 36 95 138 239 190 275 298 298 292 263 209 219 242 252 200 212 258 280 292 282 271 291 283 261 259 263 37 56 187 64 60 5 322 74 152 178 189 158 190 221 246 264 260 206 78 240 235 281 231 215 216 192 158 164 197 203 157 338 249 168 210 250 125 95 197 181 187 173 135 127 128 127 118 114 126 141 149 144 143
131 119 351 337 150 142 22 40 51 21 146 7 297 233 290 327 291 298 336 304 219 231 291 224 239 241 231 258 275 289 309 293 254 5 332 39 46 3 337 359 306 274 265 155 164 164 143 141 176 221 256 269 272 86 121 143 95 95 68 327 240 155 182 218 225 186 146 206 102 152 261 103 109 246 174 171 183 136 127 126 124 126 124 119 115 109 109 139
134 76 8 150 149 63 8 110 13 347 175 326 311 247 257 293 274 299 346 345 256 220 276 229 235 231 215 239 279 302 322 308 284 53 358 30 56 11 333 334 260 203 158 112 105 52 130 142 170 199 276 311 276 119 122 135 134 118 61 39 12 285 281 249 248 173 160 174 142 195 226 137 106 222 139 141 163 134 135 131 128 131 124 102 80 55 32 29
132 62 61 150 182 332 358 133 29 356 297 334 341 331 312 245 242 292 308 327 343 293 280 271 239 257 291 267 262 289 323 324 340 49 59 94 56 360 345 356 341 230 189 204 187 182 256 232 169 177 165 167 165 166 182 169 123 75 43 17 1 15 33 195 132 133 199 189 170 220 216 103 30 173 132 131 133 115 101 103 105 104 90 72 61 51 33 26
116 86 54 85 309 343 53 148 99 135 273 342 349 346 347 271 228 268 268 304 322 267 262 302 263 280 350 315 264 309 357 5 312 13 23 320 19 358 347 355 350 328 326 137 141 143 172 329 121 194 205 201 180 181 213 195 42 48 38 7 12 26 1 265 150 183 218 188 166 221 200 101 139 152 131 130 115 89 66 59 65 65 64 57 50 46 41 41
126 104 30 343 6 41 72 55 88 133 158 53 356 345 358 351 316 280 203 216 326 334 322 322 324 55 8 2 10 7 9 332 271 25 13 331 354 7 342 347 341 333 355 86 110 120 113 66 62 131 196 238 202 58 330 359 339 276 1 2 9 10 335 255 176 196 184 153 178 221 112 121 148 148 139 135 107 84 70 61 63 66 66 64 60 53 50 46
127 115 142 159 39 46 64 32 43 69 107 186 27 357 344 335 333 320 193 183 6 17 99 18 26 49 28 9 16 352 341 332 359 33 9 344 331 284 316 336 319 330 344 44 74 64 115 116 132 99 66 359 339 356 352 47 60 40 12 4 7 7 354 194 213 326 99 159 197 168 122 134 144 147 142 127 101 86 76 66 68 76 74 73 70 61 56 48
113 140 158 248 199 132 97 61 128 103 92 164 322 357 348 353 358 349 321 320 2 11 6 57 43 56 57 11 358 342 341 349 22 9 349 354 337 306 336 167 261 339 346 345 353 36 119 124 152 128 91 66 53 57 91 97 85 61 42 24 13 17 33 73 55 349 350 297 199 127 132 125 101 94 95 97 101 97 90 83 80 79 73 68 65 61 57 52
54 129 55 348 83 133 114 88 135 122 90 36 18 7 353 3 1 335 278 295 359 14 14 22 30 46 52 18 24 21 2 10 21 1 355 5 355 332 345 190 177 355 351 351 12 24 110 100 140 144 106 76 61 60 87 106 104 69 47 31 21 32 53 68 62 29 28 45 83 118 120 93 58 61 68 76 94 96 89 81 71 65 62 62 63 61 58 56
98 148 125 61 88 72 79 84 97 119 69 4 40 33 344 2 360 339 292 294 4 4 11 19 26 52 51 21 22 41 21 15 337 307 330 3 358 311 311 320 84 343 337 350 358 326 338 116 137 141 121 81 48 49 60 85 106 82 49 26 17 34 51 50 40 24 28 65 105 123 115 79 52 69 74 71 78 83 80 72 65 62 61 68 69 64 60 60
66 89 115 120 97 359 6 60 43 110 65 359 37 7 349 14 2 335 286 277 324 323 356 14 42 98 76 25 357 247 244 256 264 273 287 300 298 299 320 88 139 315 330 347 343 333 11 116 135 162 157 117 39 37 44 57 93 80 44 14 1 13 27 11 15 19 5 57 129 136 121 96 96 89 80 75 74 79 78 70 68 68 63 68 71 66 64 64
87 60 72 107 91 345 351 78 50 108 109 53 240 282 301 317 340 333 290 302 271 222 265 254 191 137 96 235 246 249 249 256 272 277 271 265 267 280 285 247 216 237 293 335 330 336 39 124 129 176 172 119 47 16 21 38 141 62 24 346 329 347 3 349 16 23 355 337 156 142 95 104 126 110 93 87 78 76 74 63 62 71 69 68 69 66 64 62